Location: Unspecified
(0.0000°N, 0.0000°E)
Time: 12:10:34
(UTC+00:00)

CZ-3C DEB - Pass Details

Date: 22 February 2026
Orbit: 408 x 32633 km, 21.5° (Epoch: 28 September)

Event Time Altitude Azimuth Distance (km) Brightness Sun altitude
Rises 19:13:29 0° 223° (SW) 2,370 ? -14.8°
Reaches altitude 10° 19:15:07 10° 208° (SSW) 1,693 ? -15.2°
Maximum altitude 19:18:01 28° 143° (SE) 1,395 ? -15.9°
Enters shadow 19:20:50 20° 102° (ESE) 2,369 ? -16.6°
